Statesville, NC

9:58 AM EST on December 07, 2016 (GMT -0500)
Statesville Municipal

Weather History for KSVH - February, 2014

Change the Weather History Date:

Sunday, February 9, 2014

  Actual Average (KHKY) Record (KHKY)
Temperature  
Mean Temperature 44 °F -  
Max Temperature 56 °F 47 °F 69 °F (1991)
Min Temperature 33 °F 26 °F 14 °F (1958)
Degree Days  
Heating Degree Days 20    
Moisture  
Dew Point 32 °F    
Average Humidity 65    
Maximum Humidity 83    
Minimum Humidity 46    
Precipitation  
Precipitation 0.00 in - - ()
Sea Level Pressure  
Sea Level Pressure 30.05 in    
Wind  
Wind Speed 4 mph (NNW)    
Max Wind Speed 13 mph    
Max Gust Speed 17 mph    
Visibility 10 miles    
Events      
Averages and records for this station are not official NWS values.
T = Trace of Precipitation, MM = Missing Value Source: NWS Daily Summary

Daily Weather History Graph

Daily Weather History Graph

Search for Another Location

Airport or City:

Trip Planner

Search our weather history database for the weather conditions in past years. The results will help you decide how hot, cold, wet, or windy it might be!

Date:

Astronomy

Feb. 09, 2014 Rise Set
Actual Time 7:16 AM EST 5:59 PM EST
Civil Twilight 6:50 AM EST 6:26 PM EST
Nautical Twilight 6:20 AM EST 6:56 PM EST
Astronomical Twilight 5:50 AM EST 7:26 PM EST
Moon 1:41 PM EST (2/9) 3:17 AM EST (2/9)
Length of Visible Light 11h 35m
Length of Day
10h 42m
Waxing Gibbous, 77% of the Moon is Illuminated
Feb 9
Waxing Gibbous
Feb 14
Full
Feb 22
Last Quarter
Mar 1
New
Mar 8
First Quarter

Hourly Weather History & Observations

Time (EST) Temp. Windchill Dew Point Humidity Pressure Visibility Wind Dir Wind Speed Gust Speed Precip Events Conditions
12:15 AM 39.7 °F 36.5 °F 30.4 °F 69% 30.14 in 10.0 mi NE 4.6 mph - N/A   Overcast
12:35 AM 39.6 °F 37.4 °F 30.0 °F 69% 30.14 in 10.0 mi NE 3.5 mph - N/A   Overcast
12:55 AM 39.6 °F 36.3 °F 29.8 °F 68% 30.13 in 10.0 mi NE 4.6 mph - N/A   Overcast
1:15 AM 38.8 °F 35.4 °F 29.3 °F 69% 30.13 in 10.0 mi NE 4.6 mph - N/A   Overcast
1:35 AM 38.5 °F 36.1 °F 29.7 °F 71% 30.13 in 10.0 mi NE 3.5 mph - N/A   Overcast
1:55 AM 37.9 °F 35.5 °F 29.7 °F 72% 30.11 in 10.0 mi NE 3.5 mph - N/A   Overcast
2:15 AM 37.2 °F 34.7 °F 29.3 °F 73% 30.09 in 10.0 mi ENE 3.5 mph - N/A   Mostly Cloudy
2:35 AM 37.0 °F 34.5 °F 29.1 °F 73% 30.09 in 10.0 mi NE 3.5 mph - N/A   Scattered Clouds
2:55 AM 36.5 °F 33.9 °F 29.3 °F 75% 30.08 in 10.0 mi NE 3.5 mph - N/A   Scattered Clouds
3:15 AM 35.6 °F 32.8 °F 29.1 °F 77% 30.07 in 10.0 mi NE 3.5 mph - N/A   Scattered Clouds
3:35 AM 35.1 °F 32.2 °F 28.8 °F 78% 30.07 in 10.0 mi NNE 3.5 mph - N/A   Clear
3:55 AM 34.9 °F 32.0 °F 28.8 °F 78% 30.07 in 10.0 mi NNE 3.5 mph - N/A   Clear
4:15 AM 34.2 °F 31.2 °F 28.4 °F 79% 30.07 in 10.0 mi North 3.5 mph - N/A   Clear
4:35 AM 34.5 °F 30.4 °F 28.8 °F 79% 30.07 in 10.0 mi North 4.6 mph - N/A   Clear
4:55 AM 34.2 °F 30.0 °F 28.8 °F 81% 30.07 in 10.0 mi North 4.6 mph - N/A   Clear
5:15 AM 34.0 °F 28.8 °F 28.8 °F 81% 30.08 in 10.0 mi North 5.8 mph - N/A   Clear
5:35 AM 34.7 °F 31.8 °F 28.9 °F 79% 30.08 in 10.0 mi North 3.5 mph - N/A   Clear
5:55 AM 34.2 °F 30.0 °F 28.6 °F 80% 30.08 in 10.0 mi North 4.6 mph - N/A   Clear
6:15 AM 33.8 °F 30.8 °F 28.4 °F 81% 30.09 in 10.0 mi North 3.5 mph - N/A   Clear
6:35 AM 34.0 °F 31.0 °F 28.4 °F 80% 30.09 in 10.0 mi NNE 3.5 mph - N/A   Clear
6:55 AM 33.8 °F - 28.4 °F 81% 30.09 in 10.0 mi Calm Calm - N/A   Clear
7:15 AM 33.1 °F - 28.4 °F 83% 30.09 in 10.0 mi Calm Calm - N/A   Clear
7:35 AM 33.6 °F - 28.4 °F 81% 30.09 in 10.0 mi Calm Calm - N/A   Clear
7:55 AM 33.4 °F - 28.4 °F 82% 30.09 in 10.0 mi Calm Calm - N/A   Clear
8:15 AM 34.3 °F - 28.4 °F 79% 30.10 in 10.0 mi Calm Calm - N/A   Clear
8:35 AM 34.3 °F 31.4 °F 29.7 °F 83% 30.10 in 10.0 mi ENE 3.5 mph - N/A   Scattered Clouds
8:55 AM 35.1 °F - 29.1 °F 79% 30.10 in 10.0 mi Calm Calm - N/A   Scattered Clouds
9:15 AM 36.9 °F 34.3 °F 30.4 °F 77% 30.10 in 10.0 mi East 3.5 mph - N/A   Clear
9:35 AM 37.2 °F - 30.9 °F 78% 30.10 in 10.0 mi Calm Calm - N/A   Clear
9:55 AM 39.0 °F - 31.6 °F 75% 30.10 in 10.0 mi Calm Calm - N/A   Clear
10:15 AM 39.9 °F - 32.0 °F 73% 30.09 in 10.0 mi Calm Calm - N/A   Scattered Clouds
10:35 AM 42.8 °F - 33.4 °F 70% 30.09 in 10.0 mi Calm Calm - N/A   Overcast
10:55 AM 43.3 °F 41.7 °F 33.6 °F 69% 30.09 in 10.0 mi WNW 3.5 mph - N/A   Overcast
11:15 AM 44.2 °F 42.7 °F 33.8 °F 67% 30.07 in 10.0 mi West 3.5 mph - N/A   Overcast
11:35 AM 45.0 °F - 34.2 °F 66% 30.06 in 10.0 mi Calm Calm - N/A   Overcast
11:55 AM 46.2 °F 43.3 °F 34.7 °F 64% 30.05 in 10.0 mi SE 5.8 mph - N/A   Mostly Cloudy
12:15 PM 46.9 °F - 34.7 °F 62% 30.06 in 10.0 mi WSW 5.8 mph - N/A   Mostly Cloudy
12:35 PM 47.3 °F - 34.5 °F 61% 30.06 in 10.0 mi SW 3.5 mph - N/A   Overcast
12:55 PM 48.6 °F - 34.9 °F 59% 30.04 in 10.0 mi WSW 4.6 mph - N/A   Overcast
1:15 PM 49.6 °F - 35.4 °F 58% 30.03 in 10.0 mi SW 8.1 mph - N/A   Mostly Cloudy
1:35 PM 52.2 °F - 34.9 °F 52% 30.01 in 10.0 mi SW 12.7 mph - N/A   Scattered Clouds
1:55 PM 52.9 °F - 35.1 °F 51% 30.00 in 10.0 mi SW 9.2 mph 16.1 mph N/A   Clear
2:15 PM 53.2 °F - 35.4 °F 51% 29.98 in 10.0 mi West 8.1 mph 17.3 mph N/A   Clear
2:35 PM 55.6 °F - 36.1 °F 48% 29.97 in 10.0 mi WSW 5.8 mph - N/A   Clear
2:55 PM 54.7 °F - 35.4 °F 48% 29.96 in 10.0 mi WSW 5.8 mph - N/A   Clear
3:15 PM 54.9 °F - 34.9 °F 47% 29.95 in 10.0 mi SW 5.8 mph - N/A   Clear
3:35 PM 54.9 °F - 35.2 °F 48% 29.95 in 10.0 mi WSW 9.2 mph - N/A   Clear
3:55 PM 56.1 °F - 35.8 °F 46% 29.95 in 10.0 mi SW 8.1 mph - N/A   Scattered Clouds
4:15 PM 53.6 °F - 35.1 °F 50% 29.95 in 10.0 mi WSW 5.8 mph - N/A   Clear
4:35 PM 53.4 °F - 35.1 °F 50% 29.94 in 10.0 mi SW 5.8 mph - N/A   Clear
4:55 PM 54.0 °F - 35.1 °F 49% 29.93 in 10.0 mi Calm Calm - N/A   Mostly Cloudy
5:15 PM 54.7 °F - 35.6 °F 49% 29.96 in 10.0 mi SW 3.5 mph - N/A   Mostly Cloudy
5:35 PM 54.5 °F - 35.6 °F 49% 29.97 in 10.0 mi WSW 4.6 mph - N/A   Overcast
5:55 PM 53.8 °F - 35.8 °F 51% 29.98 in 10.0 mi Calm Calm - N/A   Overcast
6:15 PM 53.2 °F - 35.6 °F 51% 29.97 in 10.0 mi Calm Calm - N/A   Overcast
6:35 PM 52.7 °F - 35.6 °F 52% 29.98 in 10.0 mi Calm Calm - N/A   Overcast
6:55 PM 50.4 °F - 36.1 °F 58% 30.00 in 10.0 mi Calm Calm - N/A   Overcast
7:15 PM 51.3 °F - 35.6 °F 55% 30.01 in 10.0 mi NNW 5.8 mph - N/A   Overcast
7:35 PM 50.0 °F - 34.9 °F 56% 30.01 in 10.0 mi North 3.5 mph - N/A   Mostly Cloudy
7:55 PM 49.3 °F - 34.5 °F 57% 30.01 in 10.0 mi NNW 4.6 mph - N/A   Mostly Cloudy
8:15 PM 48.7 °F - 34.0 °F 57% 30.02 in 10.0 mi NW 3.5 mph - N/A   Overcast
8:35 PM 48.2 °F - 33.3 °F 56% 30.02 in 10.0 mi NNW 4.6 mph - N/A   Overcast
8:55 PM 47.7 °F - 33.1 °F 57% 30.03 in 10.0 mi NNW 4.6 mph - N/A   Mostly Cloudy
9:15 PM 47.5 °F - 33.1 °F 57% 30.05 in 10.0 mi NNW 3.5 mph - N/A   Overcast
9:35 PM 46.8 °F - 32.5 °F 58% 30.04 in 10.0 mi Calm Calm - N/A   Mostly Cloudy
9:55 PM 46.4 °F - 32.4 °F 58% 30.04 in 10.0 mi Calm Calm - N/A   Clear
10:15 PM 45.5 °F - 32.0 °F 59% 30.05 in 10.0 mi Calm Calm - N/A   Clear
10:35 PM 44.8 °F - 32.2 °F 61% 30.04 in 10.0 mi Calm Calm - N/A   Scattered Clouds
10:55 PM 43.9 °F - 32.0 °F 63% 30.03 in 10.0 mi Calm Calm - N/A   Clear
11:15 PM 43.0 °F - 32.0 °F 65% 30.00 in 10.0 mi Calm Calm - N/A   Clear
11:35 PM 42.1 °F 40.2 °F 32.0 °F 67% 30.02 in 10.0 mi NNW 3.5 mph - N/A   Clear
11:55 PM 38.8 °F - 32.0 °F 76% 30.03 in 10.0 mi Calm Calm - N/A   Clear